RADIX (43550 NORAD) Tracking and Keplerian Element Data

This shows tracking and keplerian element data for the satellite.

Feedback or suggestion? Click here.




ElementValue
Catalog43550
NameRADIX
Epoch Orbit9882
Epoch Day94.00799659
Epoch Year2020
RAAN284.9236
Inclination51.6216
Eccentricity0.0010522
Argument of Perigee275.1143
Mean Anonmoly84.8672
Mean Motion16.14472608
Decay Rate0.01104112
L11 43550U 98067NY 20094.00799659 .01104112 82158-3 84181-3 0 9999
L22 43550 51.6216 284.9236 0010522 275.1143 84.8672 16.14472608 98828



Live tracking and technical data element details for RADIX (NORAD 43550). RADIX can be tracked NOW for your location showing map with azimuth and elevation plus other details from your city location.







IsCatalogInMostPopularTable: catalog: 43550, numindb: 618
Update: records affected: 1



GetName: 43550 RADIX

Hit Count: updated at: Sat, 24 May 2025 16:16:55 GMT